Weather History for St. Joseph, MO

Change the Weather History Date:

Monday, February 18, 2013

  Actual Average Record
Temperature  
Mean Temperature 38 °F 33 °F  
Max Temperature 53 °F 43 °F 75 °F (1930)
Min Temperature 22 °F 22 °F -16 °F (1978)
Degree Days  
Heating Degree Days 27 32  
Month to date heating degree days 542 619  
Since 1 July heating degree days 3703 4002  
Cooling Degree Days 0 0  
Month to date cooling degree days 0 0  
Year to date cooling degree days 0 0  
Moisture  
Dew Point 26 °F    
Average Humidity 56    
Maximum Humidity 70    
Minimum Humidity 41    
Precipitation  
Precipitation 0.03 in 0.04 in 1.73 in (1955)
Month to date precipitation 0.08 0.56  
Year to date precipitation 0.72 1.12  
Sea Level Pressure  
Sea Level Pressure 29.75 in    
Wind  
Wind Speed 17 mph (NW)    
Max Wind Speed 36 mph    
Max Gust Speed 44 mph    
Visibility 10 miles    
Events Rain , Snow    
T = Trace of Precipitation, MM = Missing Value Source: NWS Daily Summary

Daily Weather History Graph

Daily Weather History Graph

Search for Another Location

Airport:

Trip Planner

Search our weather history database for the weather conditions in past years. The results will help you decide how hot, cold, wet, or windy it might be!

Date:

Astronomy

Feb. 18, 2013 Rise Set
Actual Time 7:07 AM CST 5:59 PM CST
Civil Twilight 6:40 AM CST 6:27 PM CST
Nautical Twilight 6:08 AM CST 6:58 PM CST
Astronomical Twilight 5:37 AM CST 7:30 PM CST
Moon 11:46 AM CST (2/18) 1:48 AM CST (2/18)
Length of Visible Light 11h 46m
Length of Day
10h 51m
First Quarter, 58% of the Moon is Illuminated
Feb 18
First Quarter
Feb 25
Full
Mar 4
Last Quarter
Mar 11
New
Mar 19
First Quarter

Hourly Weather History & Observations

Time (CST) Temp. Windchill Dew Point Humidity Pressure Visibility Wind Dir Wind Speed Gust Speed Precip Events Conditions
12:53 AM 52.0 °F - 30.0 °F 43% 29.61 in 10.0 mi South 16.1 mph - N/A   Clear
1:53 AM 53.1 °F - 30.0 °F 41% 29.58 in 10.0 mi South 17.3 mph - N/A   Clear
2:53 AM 53.1 °F - 30.0 °F 41% 29.56 in 10.0 mi SSW 15.0 mph 24.2 mph N/A   Clear
3:53 AM 51.1 °F - 30.9 °F 46% 29.54 in 10.0 mi South 12.7 mph - N/A   Clear
4:53 AM 48.9 °F - 30.9 °F 50% 29.54 in 10.0 mi South 9.2 mph - N/A   Clear
5:53 AM 46.9 °F - 32.0 °F 56% 29.55 in 10.0 mi South 8.1 mph - N/A   Clear
6:53 AM 42.1 °F - 30.9 °F 65% 29.56 in 10.0 mi Calm Calm - N/A   Clear
7:53 AM 43.0 °F 39.5 °F 34.0 °F 71% 29.56 in 10.0 mi South 5.8 mph - N/A   Overcast
8:53 AM 48.9 °F - 34.0 °F 56% 29.58 in 10.0 mi NW 15.0 mph - N/A   Overcast
9:53 AM 41.0 °F 31.9 °F 30.0 °F 65% 29.62 in 10.0 mi NNW 19.6 mph - N/A   Overcast
10:53 AM 39.9 °F 30.5 °F 33.1 °F 77% 29.65 in 8.0 mi North 19.6 mph - 0.03 in Rain Light Rain
11:53 AM 41.0 °F 31.6 °F 33.1 °F 73% 29.68 in 10.0 mi North 20.7 mph 35.7 mph 0.00 in   Overcast
12:53 PM 41.0 °F 30.9 °F 32.0 °F 70% 29.69 in 10.0 mi NNW 24.2 mph 35.7 mph N/A   Overcast
1:49 PM 41.0 °F 29.3 °F 30.2 °F 65% 29.71 in 10.0 mi NNW 33.4 mph 40.3 mph N/A   Overcast
1:53 PM 39.9 °F 28.2 °F 30.0 °F 68% 29.72 in 10.0 mi North 31.1 mph 40.3 mph N/A   Overcast
2:05 PM 37.4 °F 26.1 °F 30.2 °F 75% 29.73 in 10.0 mi NNW 24.2 mph 33.4 mph N/A   Overcast
2:53 PM 35.1 °F 21.6 °F 28.9 °F 78% 29.78 in 5.0 mi NNW 31.1 mph 38.0 mph 0.00 in Snow Light Snow
3:53 PM 35.1 °F 21.8 °F 24.1 °F 64% 29.81 in 10.0 mi NNW 29.9 mph 38.0 mph 0.00 in   Mostly Cloudy
4:28 PM 35.6 °F 23.7 °F 23.0 °F 60% 29.82 in 10.0 mi NNW 24.2 mph 39.1 mph N/A   Scattered Clouds
4:53 PM 35.1 °F 21.2 °F 19.9 °F 54% 29.85 in 10.0 mi NNW 33.4 mph 43.7 mph N/A   Clear
5:53 PM 30.9 °F 15.9 °F 17.1 °F 57% 29.92 in 10.0 mi NNW 31.1 mph 39.1 mph N/A   Clear
6:53 PM 30.0 °F 19.1 °F 17.1 °F 59% 29.98 in 10.0 mi NNW 15.0 mph 24.2 mph N/A   Clear
7:53 PM 28.0 °F 18.1 °F 16.0 °F 61% 30.01 in 10.0 mi NW 11.5 mph - N/A   Clear
8:53 PM 28.0 °F 18.6 °F 16.0 °F 61% 30.03 in 10.0 mi WNW 10.4 mph - N/A   Clear
9:53 PM 28.0 °F 17.0 °F 15.1 °F 58% 30.06 in 10.0 mi NW 13.8 mph 21.9 mph N/A   Clear
10:53 PM 26.1 °F 14.0 °F 14.0 °F 60% 30.09 in 10.0 mi NW 15.0 mph - N/A   Clear
11:53 PM 23.0 °F 14.7 °F 14.0 °F 68% 30.10 in 10.0 mi NW 6.9 mph - N/A   Clear